N13BE KMTP-CYSU

Flight info

Callsign N13BE
Flight time 2h 50m
Altitude 9000
Route LFV ANCOR BGR T295 LAUDS PUXOP Q951 NABIN
Aircraft BE33/L-VGD/C

Departure

Time 2026-05-04 13:43
Airport Montauk Airport (KMTP)

Arrival

Time 2026-05-04 16:34
Airport Summerside Airport (CYSU)
Time Latitude Longitude Altitude Speed Heading
2026-05-04 13:36 41.07319 -71.92303 7 ft 0 kts 318°
2026-05-04 13:37 41.07322 -71.92306 7 ft 3 kts 316°
2026-05-04 13:38 41.07332 -71.92390 7 ft 7 kts 306°
2026-05-04 13:38 41.07353 -71.92422 7 ft 0 kts 313°
2026-05-04 13:38 41.07368 -71.92419 7 ft 8 kts 53°
2026-05-04 13:38 41.07413 -71.92335 7 ft 13 kts 47°
2026-05-04 13:39 41.07482 -71.92236 7 ft 14 kts 49°
2026-05-04 13:39 41.07555 -71.92136 7 ft 15 kts 43°
2026-05-04 13:39 41.07626 -71.92033 7 ft 15 kts 45°
2026-05-04 13:39 41.07700 -71.91927 7 ft 15 kts 42°
2026-05-04 13:40 41.07774 -71.91824 7 ft 15 kts 44°
2026-05-04 13:40 41.07852 -71.91718 7 ft 16 kts 51°
2026-05-04 13:40 41.07913 -71.91629 7 ft 9 kts 46°
2026-05-04 13:40 41.07949 -71.91602 7 ft 1 kts 322°
2026-05-04 13:41 41.07950 -71.91602 7 ft 0 kts 319°
2026-05-04 13:42 41.07951 -71.91603 7 ft 0 kts 319°
2026-05-04 13:42 41.07961 -71.91622 7 ft 6 kts 269°
2026-05-04 13:43 41.07871 -71.91755 7 ft 43 kts 224°
2026-05-04 13:43 41.07554 -71.92204 104 ft 77 kts 223°
2026-05-04 13:43 41.07117 -71.92622 346 ft 84 kts 191°
2026-05-04 13:43 41.06580 -71.92283 654 ft 96 kts 122°
2026-05-04 13:44 41.06609 -71.91399 928 ft 103 kts 53°
2026-05-04 13:44 41.07087 -71.90601 1105 ft 113 kts 44°
2026-05-04 13:44 41.07578 -71.89768 1269 ft 118 kts 45°
2026-05-04 13:44 41.08075 -71.88887 1472 ft 118 kts 46°
2026-05-04 13:45 41.08555 -71.88004 1667 ft 119 kts 45°
2026-05-04 13:45 41.09029 -71.87106 1859 ft 119 kts 45°
2026-05-04 13:45 41.09501 -71.86195 2051 ft 119 kts 45°
2026-05-04 13:45 41.09980 -71.85274 2212 ft 123 kts 45°
2026-05-04 13:46 41.10471 -71.84335 2365 ft 127 kts 46°
2026-05-04 13:46 41.10991 -71.83366 2525 ft 131 kts 46°
2026-05-04 13:46 41.11530 -71.82375 2687 ft 136 kts 45°
2026-05-04 13:46 41.12105 -71.81324 2847 ft 143 kts 46°
2026-05-04 13:47 41.12706 -71.80244 3002 ft 149 kts 46°
2026-05-04 13:47 41.13335 -71.79127 3159 ft 154 kts 46°
2026-05-04 13:47 41.13987 -71.77981 3317 ft 157 kts 46°
2026-05-04 13:47 41.14656 -71.76810 3471 ft 160 kts 46°
2026-05-04 13:48 41.15337 -71.75628 3599 ft 165 kts 46°
2026-05-04 13:48 41.16081 -71.74455 3735 ft 163 kts 32°
2026-05-04 13:48 41.16935 -71.73442 3864 ft 168 kts 38°
2026-05-04 13:48 41.17712 -71.72279 3989 ft 172 kts 45°
2026-05-04 13:49 41.18441 -71.71005 4118 ft 174 kts 49°
2026-05-04 13:49 41.19138 -71.69690 4247 ft 175 kts 50°
2026-05-04 13:49 41.19830 -71.68350 4378 ft 175 kts 50°
2026-05-04 13:49 41.20517 -71.67009 4506 ft 176 kts 50°
2026-05-04 13:50 41.21199 -71.65673 4636 ft 176 kts 50°
2026-05-04 13:50 41.21887 -71.64326 4763 ft 176 kts 51°
2026-05-04 13:50 41.22570 -71.62987 4893 ft 175 kts 51°
2026-05-04 13:50 41.23258 -71.61638 5024 ft 175 kts 51°
2026-05-04 13:51 41.23940 -71.60302 5151 ft 175 kts 51°
2026-05-04 13:51 41.24623 -71.58961 5281 ft 175 kts 51°
2026-05-04 13:51 41.25295 -71.57641 5404 ft 174 kts 51°
2026-05-04 13:51 41.25976 -71.56303 5527 ft 174 kts 51°
2026-05-04 13:52 41.27327 -71.53646 5795 ft 173 kts 50°
2026-05-04 13:52 41.28006 -71.52312 5920 ft 173 kts 50°
2026-05-04 13:52 41.28682 -71.50978 6051 ft 173 kts 50°
2026-05-04 13:53 41.29350 -71.49665 6178 ft 172 kts 50°
2026-05-04 13:53 41.30022 -71.48344 6314 ft 172 kts 50°
2026-05-04 13:53 41.30692 -71.47024 6441 ft 171 kts 50°
2026-05-04 13:54 41.32018 -71.44411 6692 ft 170 kts 50°
2026-05-04 13:54 41.32675 -71.43116 6819 ft 170 kts 50°
2026-05-04 13:54 41.34008 -71.40484 7071 ft 172 kts 50°
2026-05-04 13:55 41.34677 -71.39163 7205 ft 174 kts 50°
2026-05-04 13:55 41.36037 -71.36484 7459 ft 175 kts 50°
2026-05-04 13:55 41.36717 -71.35144 7589 ft 175 kts 51°
2026-05-04 13:56 41.37392 -71.33810 7708 ft 175 kts 51°
2026-05-04 13:56 41.38071 -71.32464 7822 ft 175 kts 51°
2026-05-04 13:56 41.39434 -71.29764 8032 ft 175 kts 51°
2026-05-04 13:57 41.40110 -71.28424 8173 ft 175 kts 51°
2026-05-04 13:57 41.40792 -71.27073 8273 ft 175 kts 50°
2026-05-04 13:58 41.42825 -71.23038 8637 ft 174 kts 51°
2026-05-04 13:58 41.44168 -71.20370 8912 ft 174 kts 51°
2026-05-04 13:58 41.44841 -71.19031 8973 ft 177 kts 50°
2026-05-04 13:59 41.45543 -71.17638 8979 ft 183 kts 51°
2026-05-04 13:59 41.46254 -71.16224 8994 ft 187 kts 51°
2026-05-04 13:59 41.47745 -71.13253 8998 ft 195 kts 51°
2026-05-04 14:00 41.48499 -71.11749 8999 ft 198 kts 51°
2026-05-04 14:00 41.50042 -71.08670 9002 ft 199 kts 51°
2026-05-04 14:00 41.50800 -71.07152 8999 ft 199 kts 51°
2026-05-04 14:01 41.51577 -71.05598 8998 ft 200 kts 51°
2026-05-04 14:01 41.52345 -71.04064 8999 ft 200 kts 51°
2026-05-04 14:01 41.53885 -71.00987 8997 ft 200 kts 51°
2026-05-04 14:02 41.54660 -70.99435 9000 ft 200 kts 51°
2026-05-04 14:02 41.55430 -70.97894 9000 ft 200 kts 51°
2026-05-04 14:02 41.56208 -70.96336 9003 ft 200 kts 51°
2026-05-04 14:02 41.56974 -70.94799 8998 ft 201 kts 51°
2026-05-04 14:03 41.57742 -70.93256 8998 ft 200 kts 51°
2026-05-04 14:03 41.58522 -70.91692 8995 ft 201 kts 51°
2026-05-04 14:03 41.59289 -70.90153 8992 ft 201 kts 51°
2026-05-04 14:03 41.60065 -70.88596 8989 ft 201 kts 51°
2026-05-04 14:04 41.61617 -70.85476 8986 ft 201 kts 51°
2026-05-04 14:04 41.62391 -70.83920 8986 ft 201 kts 51°
2026-05-04 14:04 41.63158 -70.82374 8989 ft 201 kts 51°
2026-05-04 14:05 41.64713 -70.79245 8990 ft 201 kts 51°
2026-05-04 14:05 41.65476 -70.77706 8988 ft 201 kts 51°
2026-05-04 14:05 41.66257 -70.76134 8986 ft 201 kts 51°
2026-05-04 14:06 41.67022 -70.74591 8989 ft 201 kts 51°
2026-05-04 14:06 41.67805 -70.73013 8991 ft 201 kts 51°
2026-05-04 14:06 41.68576 -70.71458 8992 ft 201 kts 51°
2026-05-04 14:06 41.69351 -70.69889 8989 ft 201 kts 51°
2026-05-04 14:07 41.70115 -70.68340 8988 ft 201 kts 51°
2026-05-04 14:07 41.70890 -70.66774 8987 ft 201 kts 51°
2026-05-04 14:07 41.71661 -70.65214 8981 ft 201 kts 50°
2026-05-04 14:07 41.72430 -70.63657 8981 ft 201 kts 51°
2026-05-04 14:08 41.73199 -70.62102 8988 ft 201 kts 51°
2026-05-04 14:08 41.73973 -70.60532 8987 ft 201 kts 50°
2026-05-04 14:08 41.74738 -70.58978 8986 ft 201 kts 50°
2026-05-04 14:08 41.75510 -70.57416 8983 ft 201 kts 51°
2026-05-04 14:09 41.77055 -70.54277 8983 ft 201 kts 50°
2026-05-04 14:09 41.77823 -70.52717 8986 ft 201 kts 51°
2026-05-04 14:10 41.79364 -70.49583 8986 ft 202 kts 50°
2026-05-04 14:10 41.80135 -70.48014 8983 ft 202 kts 51°
2026-05-04 14:10 41.80909 -70.46438 8980 ft 202 kts 50°
2026-05-04 14:10 41.81678 -70.44871 8982 ft 202 kts 50°
2026-05-04 14:11 41.82449 -70.43301 8981 ft 202 kts 50°
2026-05-04 14:11 41.83992 -70.40153 8984 ft 201 kts 50°
2026-05-04 14:11 41.84757 -70.38589 8979 ft 202 kts 50°
2026-05-04 14:12 41.85527 -70.37016 8975 ft 202 kts 50°
2026-05-04 14:12 41.86297 -70.35450 8979 ft 201 kts 50°
2026-05-04 14:12 41.87834 -70.32305 8969 ft 201 kts 51°
2026-05-04 14:13 41.88597 -70.30743 8967 ft 201 kts 51°
2026-05-04 14:13 41.89369 -70.29160 8969 ft 201 kts 51°
2026-05-04 14:13 41.90134 -70.27593 8957 ft 201 kts 51°
2026-05-04 14:13 41.90899 -70.26025 8961 ft 201 kts 51°
2026-05-04 14:14 41.91657 -70.24470 8960 ft 201 kts 51°
2026-05-04 14:14 41.93185 -70.21335 8966 ft 200 kts 51°
2026-05-04 14:14 41.93951 -70.19760 8974 ft 200 kts 51°
2026-05-04 14:15 41.95475 -70.16628 8983 ft 200 kts 51°
2026-05-04 14:15 41.96995 -70.13496 8975 ft 202 kts 51°
2026-05-04 14:16 41.98528 -70.10340 8992 ft 202 kts 50°
2026-05-04 14:16 41.99290 -70.08772 8963 ft 202 kts 50°
2026-05-04 14:17 42.00822 -70.05611 8971 ft 201 kts 50°
2026-05-04 14:17 42.01631 -70.04090 8972 ft 195 kts 34°
2026-05-04 14:17 42.03966 -70.02708 8965 ft 182 kts
2026-05-04 14:18 42.05172 -70.02174 8971 ft 182 kts
2026-05-04 14:18 42.07570 -70.01107 8968 ft 182 kts
2026-05-04 14:19 42.09972 -70.00030 8970 ft 181 kts
2026-05-04 14:19 42.11176 -69.99488 8961 ft 181 kts
2026-05-04 14:19 42.12361 -69.98955 8965 ft 181 kts
2026-05-04 14:19 42.13566 -69.98414 8957 ft 181 kts
2026-05-04 14:20 42.14758 -69.97875 8945 ft 181 kts
2026-05-04 14:20 42.15959 -69.97334 8948 ft 180 kts
2026-05-04 14:20 42.17147 -69.96799 8959 ft 181 kts
2026-05-04 14:21 42.19535 -69.95721 8952 ft 182 kts
2026-05-04 14:21 42.20729 -69.95180 8946 ft 182 kts
2026-05-04 14:21 42.21938 -69.94635 8946 ft 181 kts
2026-05-04 14:21 42.23124 -69.94099 8950 ft 181 kts
2026-05-04 14:22 42.24316 -69.93561 8955 ft 181 kts
2026-05-04 14:22 42.25510 -69.93020 8949 ft 181 kts
2026-05-04 14:22 42.26703 -69.92481 8950 ft 181 kts
2026-05-04 14:22 42.27900 -69.91939 8949 ft 180 kts
2026-05-04 14:23 42.30274 -69.90867 8957 ft 180 kts
2026-05-04 14:23 42.31478 -69.90321 8954 ft 181 kts
2026-05-04 14:23 42.32671 -69.89778 8949 ft 181 kts
2026-05-04 14:24 42.33862 -69.89236 8947 ft 182 kts
2026-05-04 14:24 42.35076 -69.88686 8940 ft 182 kts
2026-05-04 14:24 42.36272 -69.88141 8937 ft 182 kts
2026-05-04 14:24 42.37465 -69.87602 8933 ft 181 kts
2026-05-04 14:25 42.38668 -69.87054 8938 ft 181 kts
2026-05-04 14:25 42.41045 -69.85977 8941 ft 180 kts
2026-05-04 14:25 42.42238 -69.85435 8944 ft 181 kts
2026-05-04 14:26 42.43433 -69.84892 8942 ft 181 kts
2026-05-04 14:26 42.44628 -69.84347 8939 ft 181 kts
2026-05-04 14:26 42.45818 -69.83807 8939 ft 181 kts
2026-05-04 14:26 42.47004 -69.83266 8943 ft 181 kts
2026-05-04 14:27 42.48200 -69.82722 8946 ft 181 kts
2026-05-04 14:27 42.49400 -69.82176 8944 ft 181 kts
2026-05-04 14:27 42.50598 -69.81628 8939 ft 181 kts
2026-05-04 14:27 42.51783 -69.81087 8940 ft 181 kts
2026-05-04 14:28 42.52978 -69.80539 8940 ft 181 kts
2026-05-04 14:28 42.54168 -69.79996 8943 ft 181 kts
2026-05-04 14:28 42.55356 -69.79452 8941 ft 181 kts
2026-05-04 14:28 42.56553 -69.78906 8935 ft 181 kts
2026-05-04 14:29 42.58943 -69.77815 8940 ft 181 kts
2026-05-04 14:29 42.61332 -69.76722 8938 ft 181 kts
2026-05-04 14:30 42.62516 -69.76181 8940 ft 180 kts
2026-05-04 14:30 42.63697 -69.75638 8939 ft 180 kts
2026-05-04 14:30 42.66078 -69.74545 8931 ft 180 kts
2026-05-04 14:31 42.67278 -69.73995 8928 ft 180 kts
2026-05-04 14:31 42.69662 -69.72903 8934 ft 180 kts
2026-05-04 14:32 42.72044 -69.71807 8925 ft 181 kts
2026-05-04 14:32 42.73220 -69.71262 9006 ft 177 kts
2026-05-04 14:32 42.74386 -69.70727 9020 ft 177 kts
2026-05-04 14:32 42.75555 -69.70192 9027 ft 177 kts
2026-05-04 14:33 42.76730 -69.69654 9029 ft 178 kts
2026-05-04 14:33 42.77906 -69.69113 9026 ft 179 kts
2026-05-04 14:33 42.79088 -69.68568 9028 ft 180 kts
2026-05-04 14:33 42.80270 -69.68024 9028 ft 180 kts
2026-05-04 14:34 42.81463 -69.67469 9026 ft 180 kts
2026-05-04 14:34 42.82643 -69.66926 9022 ft 180 kts
2026-05-04 14:34 42.83839 -69.66377 9021 ft 180 kts
2026-05-04 14:34 42.85024 -69.65829 9028 ft 180 kts
2026-05-04 14:35 42.86211 -69.65281 9022 ft 180 kts
2026-05-04 14:35 42.87407 -69.64729 9019 ft 181 kts
2026-05-04 14:35 42.88594 -69.64181 9016 ft 180 kts
2026-05-04 14:35 42.89791 -69.63626 9022 ft 180 kts
2026-05-04 14:36 42.90974 -69.63075 9017 ft 180 kts
2026-05-04 14:36 42.92157 -69.62530 9014 ft 181 kts
2026-05-04 14:36 42.93349 -69.61980 9013 ft 181 kts
2026-05-04 14:36 42.94546 -69.61426 9016 ft 180 kts
2026-05-04 14:37 42.95733 -69.60876 9018 ft 180 kts
2026-05-04 14:37 42.96910 -69.60331 9015 ft 180 kts
2026-05-04 14:37 42.98115 -69.59773 9005 ft 180 kts
2026-05-04 14:37 42.99303 -69.59221 9003 ft 180 kts
2026-05-04 14:38 43.00491 -69.58670 9000 ft 180 kts
2026-05-04 14:38 43.01678 -69.58119 9001 ft 180 kts
2026-05-04 14:38 43.02861 -69.57570 8997 ft 180 kts
2026-05-04 14:38 43.04048 -69.57018 8996 ft 180 kts
2026-05-04 14:39 43.05233 -69.56467 8997 ft 180 kts
2026-05-04 14:39 43.06410 -69.55920 9000 ft 180 kts
2026-05-04 14:39 43.07597 -69.55367 9001 ft 180 kts
2026-05-04 14:40 43.09981 -69.54260 9003 ft 180 kts
2026-05-04 14:40 43.11165 -69.53708 8998 ft 181 kts
2026-05-04 14:40 43.12360 -69.53150 8997 ft 180 kts
2026-05-04 14:40 43.13554 -69.52601 8994 ft 181 kts
2026-05-04 14:41 43.14737 -69.52047 8994 ft 181 kts
2026-05-04 14:41 43.15932 -69.51488 8997 ft 180 kts
2026-05-04 14:41 43.18303 -69.50379 9000 ft 180 kts
2026-05-04 14:42 43.20681 -69.49267 8997 ft 180 kts
2026-05-04 14:42 43.21864 -69.48714 8995 ft 179 kts
2026-05-04 14:42 43.23043 -69.48163 8997 ft 179 kts
2026-05-04 14:43 43.24217 -69.47613 8991 ft 179 kts
2026-05-04 14:43 43.25404 -69.47057 8994 ft 179 kts
2026-05-04 14:43 43.26586 -69.46504 8991 ft 179 kts
2026-05-04 14:43 43.27750 -69.45959 9001 ft 179 kts
2026-05-04 14:44 43.28934 -69.45403 9008 ft 179 kts
2026-05-04 14:44 43.30121 -69.44847 9006 ft 179 kts
2026-05-04 14:44 43.31300 -69.44294 9001 ft 179 kts
2026-05-04 14:44 43.32484 -69.43739 8995 ft 179 kts
2026-05-04 14:45 43.33664 -69.43184 8993 ft 179 kts
2026-05-04 14:45 43.34849 -69.42628 8995 ft 179 kts
2026-05-04 14:45 43.36019 -69.42078 8991 ft 179 kts
2026-05-04 14:45 43.37213 -69.41518 8992 ft 179 kts
2026-05-04 14:46 43.38391 -69.40964 8990 ft 179 kts
2026-05-04 14:46 43.39565 -69.40412 8989 ft 179 kts
2026-05-04 14:46 43.40754 -69.39853 8989 ft 179 kts
2026-05-04 14:46 43.41930 -69.39298 8987 ft 179 kts
2026-05-04 14:47 43.43101 -69.38747 8994 ft 179 kts
2026-05-04 14:47 43.44288 -69.38188 8996 ft 179 kts
2026-05-04 14:47 43.45454 -69.37639 8993 ft 179 kts
2026-05-04 14:47 43.46634 -69.37083 8992 ft 179 kts
2026-05-04 14:48 43.47826 -69.36520 8990 ft 179 kts
2026-05-04 14:48 43.49000 -69.35965 8991 ft 179 kts
2026-05-04 14:48 43.50179 -69.35409 8996 ft 179 kts
2026-05-04 14:48 43.51356 -69.34854 8994 ft 179 kts
2026-05-04 14:49 43.52529 -69.34299 8983 ft 178 kts
2026-05-04 14:49 43.53693 -69.33748 8989 ft 178 kts
2026-05-04 14:49 43.54860 -69.33196 8978 ft 177 kts
2026-05-04 14:49 43.56036 -69.32640 8972 ft 177 kts
2026-05-04 14:50 43.57196 -69.32089 8973 ft 177 kts
2026-05-04 14:50 43.58355 -69.31542 8972 ft 176 kts
2026-05-04 14:50 43.59531 -69.30985 8975 ft 177 kts
2026-05-04 14:50 43.60690 -69.30436 8971 ft 176 kts
2026-05-04 14:51 43.61844 -69.29890 8969 ft 176 kts
2026-05-04 14:51 43.63012 -69.29335 8977 ft 176 kts
2026-05-04 14:51 43.64177 -69.28782 8970 ft 177 kts
2026-05-04 14:51 43.65334 -69.28233 8976 ft 176 kts
2026-05-04 14:52 43.66491 -69.27685 8978 ft 177 kts
2026-05-04 14:52 43.67660 -69.27129 8977 ft 177 kts
2026-05-04 14:52 43.68825 -69.26575 8972 ft 176 kts
2026-05-04 14:52 43.69981 -69.26025 8981 ft 176 kts
2026-05-04 14:53 43.71132 -69.25478 8981 ft 176 kts
2026-05-04 14:53 43.72305 -69.24922 8979 ft 177 kts
2026-05-04 14:53 43.73471 -69.24367 8967 ft 177 kts
2026-05-04 14:53 43.74640 -69.23808 8963 ft 177 kts
2026-05-04 14:54 43.75802 -69.23254 8970 ft 177 kts
2026-05-04 14:54 43.76960 -69.22703 8971 ft 176 kts
2026-05-04 14:54 43.78121 -69.22150 8980 ft 176 kts
2026-05-04 14:54 43.79283 -69.21595 8979 ft 176 kts
2026-05-04 14:55 43.80437 -69.21044 8982 ft 176 kts
2026-05-04 14:55 43.81606 -69.20488 8980 ft 176 kts
2026-05-04 14:55 43.82767 -69.19933 8982 ft 176 kts
2026-05-04 14:55 43.83915 -69.19385 8978 ft 176 kts
2026-05-04 14:56 43.85076 -69.18828 8982 ft 176 kts
2026-05-04 14:56 43.86237 -69.18272 8985 ft 176 kts
2026-05-04 14:56 43.87399 -69.17718 8984 ft 177 kts
2026-05-04 14:56 43.88564 -69.17161 8984 ft 177 kts
2026-05-04 14:57 43.89726 -69.16603 8970 ft 177 kts
2026-05-04 14:57 43.90877 -69.16050 8969 ft 176 kts
2026-05-04 14:57 43.92046 -69.15490 8970 ft 175 kts
2026-05-04 14:57 43.93192 -69.14943 8976 ft 175 kts
2026-05-04 14:58 43.94340 -69.14393 8965 ft 175 kts
2026-05-04 14:58 43.95496 -69.13837 8951 ft 175 kts
2026-05-04 14:58 43.96639 -69.13290 8959 ft 173 kts
2026-05-04 14:58 43.97787 -69.12743 8953 ft 173 kts
2026-05-04 14:59 43.98920 -69.12199 8949 ft 172 kts
2026-05-04 14:59 44.00059 -69.11705 8957 ft 168 kts 357°
2026-05-04 14:59 44.02338 -69.11047 8959 ft 168 kts 355°
2026-05-04 15:00 44.03491 -69.10722 8961 ft 169 kts 356°
2026-05-04 15:00 44.04645 -69.10396 8960 ft 170 kts 356°
2026-05-04 15:00 44.05802 -69.10068 8962 ft 170 kts 356°
2026-05-04 15:01 44.08110 -69.09409 8964 ft 170 kts 355°
2026-05-04 15:01 44.09273 -69.09076 8968 ft 169 kts 356°
2026-05-04 15:01 44.10421 -69.08750 8970 ft 169 kts 356°
2026-05-04 15:01 44.11576 -69.08421 8980 ft 169 kts 356°
2026-05-04 15:02 44.12735 -69.08089 8971 ft 170 kts 356°
2026-05-04 15:02 44.13909 -69.07753 8981 ft 170 kts 356°
2026-05-04 15:02 44.15071 -69.07421 8988 ft 171 kts 356°
2026-05-04 15:02 44.16237 -69.07086 8983 ft 172 kts 355°
2026-05-04 15:03 44.17409 -69.06754 8970 ft 173 kts 356°
2026-05-04 15:03 44.18586 -69.06416 8966 ft 172 kts 356°
2026-05-04 15:03 44.19770 -69.06078 8973 ft 172 kts 355°
2026-05-04 15:03 44.20931 -69.05750 8981 ft 172 kts 355°
2026-05-04 15:04 44.22118 -69.05411 8975 ft 173 kts 355°
2026-05-04 15:04 44.23294 -69.05074 8979 ft 173 kts 356°
2026-05-04 15:04 44.24477 -69.04736 8971 ft 173 kts 355°
2026-05-04 15:04 44.25655 -69.04399 8958 ft 172 kts 356°
2026-05-04 15:05 44.26821 -69.04060 8961 ft 172 kts 355°
2026-05-04 15:05 44.27992 -69.03725 8952 ft 171 kts 355°
2026-05-04 15:05 44.29158 -69.03391 8960 ft 171 kts 355°
2026-05-04 15:05 44.30318 -69.03060 8959 ft 171 kts 355°
2026-05-04 15:06 44.31491 -69.02724 8952 ft 171 kts 355°
2026-05-04 15:06 44.32659 -69.02384 8955 ft 171 kts 356°
2026-05-04 15:06 44.33827 -69.02050 8942 ft 171 kts 356°
2026-05-04 15:07 44.36155 -69.01379 8949 ft 171 kts 356°
2026-05-04 15:07 44.37320 -69.01043 8951 ft 172 kts 356°
2026-05-04 15:07 44.38500 -69.00701 8955 ft 172 kts 356°
2026-05-04 15:07 44.39668 -69.00364 8948 ft 172 kts 356°
2026-05-04 15:08 44.40848 -69.00026 8944 ft 172 kts 356°
2026-05-04 15:08 44.42025 -68.99688 8943 ft 172 kts 356°
2026-05-04 15:08 44.43184 -68.99351 8943 ft 172 kts 357°
2026-05-04 15:08 44.44355 -68.99013 8946 ft 171 kts 356°
2026-05-04 15:09 44.45532 -68.98673 8944 ft 172 kts 357°
2026-05-04 15:09 44.46700 -68.98335 8945 ft 171 kts 356°
2026-05-04 15:09 44.47860 -68.98001 8943 ft 171 kts 356°
2026-05-04 15:10 44.50191 -68.97327 8937 ft 170 kts 356°
2026-05-04 15:10 44.51362 -68.96989 8933 ft 170 kts 357°
2026-05-04 15:10 44.53669 -68.96321 8930 ft 169 kts 357°
2026-05-04 15:11 44.54818 -68.95990 8936 ft 170 kts 357°
2026-05-04 15:11 44.55983 -68.95653 8935 ft 170 kts 356°
2026-05-04 15:11 44.57150 -68.95314 8936 ft 171 kts 356°
2026-05-04 15:11 44.58321 -68.94974 8929 ft 171 kts 356°
2026-05-04 15:12 44.59484 -68.94637 8923 ft 171 kts 356°
2026-05-04 15:12 44.60638 -68.94301 8930 ft 171 kts 356°
2026-05-04 15:12 44.61809 -68.93960 8930 ft 171 kts 356°
2026-05-04 15:12 44.62964 -68.93624 8935 ft 171 kts 356°
2026-05-04 15:13 44.64130 -68.93286 8928 ft 171 kts 356°
2026-05-04 15:13 44.65300 -68.92947 8929 ft 171 kts 356°
2026-05-04 15:13 44.66460 -68.92609 8926 ft 170 kts 356°
2026-05-04 15:13 44.67630 -68.92268 8931 ft 170 kts 356°
2026-05-04 15:14 44.68784 -68.91933 8925 ft 170 kts 356°
2026-05-04 15:14 44.69946 -68.91595 8924 ft 170 kts 356°
2026-05-04 15:14 44.71111 -68.91256 8921 ft 170 kts 357°
2026-05-04 15:14 44.72270 -68.90919 8925 ft 170 kts 357°
2026-05-04 15:15 44.73418 -68.90584 8921 ft 170 kts 357°
2026-05-04 15:15 44.74575 -68.90245 8925 ft 170 kts 357°
2026-05-04 15:15 44.75731 -68.89906 8925 ft 170 kts 357°
2026-05-04 15:16 44.78075 -68.89223 8920 ft 171 kts 358°
2026-05-04 15:16 44.79239 -68.88883 8919 ft 171 kts 357°
2026-05-04 15:16 44.81583 -68.88192 8922 ft 171 kts 357°
2026-05-04 15:17 44.82750 -68.87852 8921 ft 171 kts 357°
2026-05-04 15:17 44.85001 -68.86518 8918 ft 188 kts 25°
2026-05-04 15:17 44.86028 -68.85367 8924 ft 189 kts 27°
2026-05-04 15:18 44.87045 -68.84199 8926 ft 189 kts 27°
2026-05-04 15:18 44.88060 -68.83035 8920 ft 190 kts 27°
2026-05-04 15:18 44.89087 -68.81853 8922 ft 190 kts 27°
2026-05-04 15:19 44.91151 -68.79490 8921 ft 191 kts 27°
2026-05-04 15:19 44.92183 -68.78302 8958 ft 190 kts 27°
2026-05-04 15:19 44.94236 -68.75954 8972 ft 189 kts 27°
2026-05-04 15:20 44.95264 -68.74783 8974 ft 190 kts 27°
2026-05-04 15:20 44.96279 -68.73624 8976 ft 190 kts 27°
2026-05-04 15:20 44.97305 -68.72449 8969 ft 190 kts 27°
2026-05-04 15:20 44.98340 -68.71265 8970 ft 190 kts 27°
2026-05-04 15:21 44.99362 -68.70098 8968 ft 189 kts 27°
2026-05-04 15:21 45.00386 -68.68926 8968 ft 189 kts 27°
2026-05-04 15:21 45.02443 -68.66569 8955 ft 190 kts 27°
2026-05-04 15:22 45.03462 -68.65399 8953 ft 190 kts 27°
2026-05-04 15:22 45.04485 -68.64224 8949 ft 190 kts 27°
2026-05-04 15:22 45.06527 -68.61879 8950 ft 190 kts 27°
2026-05-04 15:23 45.07561 -68.60686 8941 ft 190 kts 27°
2026-05-04 15:23 45.08590 -68.59503 8937 ft 190 kts 28°
2026-05-04 15:23 45.09611 -68.58331 8934 ft 190 kts 27°
2026-05-04 15:23 45.10633 -68.57158 8931 ft 189 kts 27°
2026-05-04 15:24 45.12674 -68.54805 8937 ft 189 kts 27°
2026-05-04 15:24 45.14716 -68.52451 8939 ft 188 kts 27°
2026-05-04 15:25 45.15728 -68.51286 8935 ft 189 kts 27°
2026-05-04 15:25 45.16747 -68.50108 8937 ft 189 kts 27°
2026-05-04 15:25 45.17768 -68.48929 8935 ft 189 kts 27°
2026-05-04 15:26 45.19795 -68.46583 8934 ft 189 kts 27°
2026-05-04 15:26 45.20815 -68.45404 8935 ft 189 kts 27°
2026-05-04 15:26 45.22853 -68.43041 8937 ft 189 kts 27°
2026-05-04 15:27 45.23862 -68.41869 8942 ft 188 kts 27°
2026-05-04 15:27 45.25893 -68.39516 8940 ft 188 kts 27°
2026-05-04 15:28 45.27929 -68.37153 8936 ft 188 kts 28°
2026-05-04 15:28 45.28932 -68.35988 8938 ft 188 kts 28°
2026-05-04 15:28 45.30958 -68.33629 8942 ft 187 kts 28°
2026-05-04 15:29 45.31974 -68.32448 8942 ft 187 kts 28°
2026-05-04 15:30 45.35991 -68.27768 8939 ft 187 kts 28°
2026-05-04 15:30 45.39010 -68.24246 8939 ft 187 kts 28°
2026-05-04 15:31 45.41019 -68.21899 8930 ft 187 kts 28°
2026-05-04 15:31 45.41965 -68.20590 8899 ft 197 kts 49°
2026-05-04 15:32 45.43687 -68.15248 8917 ft 199 kts 60°
2026-05-04 15:32 45.44785 -68.11639 8917 ft 199 kts 60°
2026-05-04 15:33 45.45889 -68.08028 8916 ft 199 kts 60°
2026-05-04 15:34 45.47547 -68.02602 8911 ft 199 kts 60°
2026-05-04 15:34 45.48096 -68.00803 8918 ft 199 kts 59°
2026-05-04 15:34 45.49200 -67.97186 8916 ft 199 kts 59°
2026-05-04 15:35 45.50303 -67.93568 8919 ft 199 kts 59°
2026-05-04 15:35 45.50849 -67.91773 8914 ft 199 kts 59°
2026-05-04 15:35 45.51397 -67.89964 8912 ft 199 kts 59°
2026-05-04 15:36 45.52493 -67.86370 8915 ft 198 kts 59°
2026-05-04 15:36 45.53046 -67.84557 8920 ft 198 kts 59°
2026-05-04 15:36 45.53589 -67.82767 8920 ft 198 kts 59°
2026-05-04 15:37 45.54136 -67.80968 8929 ft 197 kts 59°
2026-05-04 15:37 45.54679 -67.79168 8935 ft 198 kts 59°
2026-05-04 15:37 45.55227 -67.77348 8933 ft 198 kts 59°
2026-05-04 15:37 45.55770 -67.75563 8933 ft 198 kts 59°
2026-05-04 15:38 45.56318 -67.73749 8934 ft 198 kts 59°
2026-05-04 15:38 45.56859 -67.71954 8935 ft 198 kts 59°
2026-05-04 15:38 45.57407 -67.70140 8930 ft 199 kts 59°
2026-05-04 15:38 45.57946 -67.68355 8933 ft 198 kts 59°
2026-05-04 15:39 45.58497 -67.66530 8931 ft 198 kts 59°
2026-05-04 15:39 45.59040 -67.64726 8929 ft 198 kts 59°
2026-05-04 15:39 45.60128 -67.61108 8924 ft 198 kts 59°
2026-05-04 15:40 45.60668 -67.59309 8921 ft 199 kts 59°
2026-05-04 15:40 45.61215 -67.57493 8918 ft 199 kts 59°
2026-05-04 15:40 45.61756 -67.55683 8917 ft 198 kts 59°
2026-05-04 15:40 45.62293 -67.53894 8922 ft 198 kts 59°
2026-05-04 15:41 45.62840 -67.52068 8928 ft 198 kts 58°
2026-05-04 15:41 45.63377 -67.50275 8923 ft 198 kts 58°
2026-05-04 15:41 45.63923 -67.48451 8925 ft 198 kts 58°
2026-05-04 15:41 45.64459 -67.46661 8914 ft 199 kts 59°
2026-05-04 15:42 45.65004 -67.44833 8911 ft 199 kts 59°
2026-05-04 15:42 45.65542 -67.43031 8914 ft 198 kts 59°
2026-05-04 15:42 45.66080 -67.41231 8913 ft 198 kts 59°
2026-05-04 15:42 45.66621 -67.39414 8912 ft 198 kts 59°
2026-05-04 15:43 45.67162 -67.37595 8909 ft 199 kts 59°
2026-05-04 15:43 45.67701 -67.35786 8910 ft 199 kts 58°
2026-05-04 15:43 45.68240 -67.33971 8903 ft 198 kts 59°
2026-05-04 15:43 45.68782 -67.32152 8901 ft 198 kts 59°
2026-05-04 15:44 45.69319 -67.30344 8904 ft 197 kts 59°
2026-05-04 15:44 45.69851 -67.28548 8903 ft 197 kts 59°
2026-05-04 15:44 45.70384 -67.26756 8902 ft 197 kts 59°
2026-05-04 15:44 45.70915 -67.24962 8907 ft 196 kts 59°
2026-05-04 15:45 45.71450 -67.23151 8911 ft 196 kts 59°
2026-05-04 15:45 45.71980 -67.21359 8914 ft 196 kts 59°
2026-05-04 15:45 45.72512 -67.19563 8916 ft 195 kts 59°
2026-05-04 15:45 45.73040 -67.17778 8924 ft 195 kts 59°
2026-05-04 15:46 45.73569 -67.15987 8924 ft 195 kts 59°
2026-05-04 15:46 45.74096 -67.14202 8924 ft 195 kts 59°
2026-05-04 15:46 45.74620 -67.12427 8925 ft 195 kts 59°
2026-05-04 15:46 45.75146 -67.10641 8925 ft 195 kts 59°
2026-05-04 15:47 45.75679 -67.08832 8922 ft 195 kts 59°
2026-05-04 15:47 45.76200 -67.07059 8919 ft 195 kts 59°
2026-05-04 15:47 45.76727 -67.05267 8920 ft 195 kts 58°
2026-05-04 15:47 45.77257 -67.03461 8920 ft 196 kts 58°
2026-05-04 15:48 45.77779 -67.01684 8920 ft 196 kts 59°
2026-05-04 15:48 45.78310 -66.99876 8919 ft 196 kts 59°
2026-05-04 15:48 45.79342 -66.96269 8970 ft 195 kts 60°
2026-05-04 15:49 45.79859 -66.94486 8975 ft 196 kts 60°
2026-05-04 15:49 45.80389 -66.92672 8970 ft 197 kts 60°
2026-05-04 15:49 45.80915 -66.90869 8970 ft 198 kts 60°
2026-05-04 15:49 45.81447 -66.89049 8965 ft 199 kts 60°
2026-05-04 15:50 45.81986 -66.87205 8965 ft 199 kts 60°
2026-05-04 15:50 45.82517 -66.85384 8962 ft 199 kts 60°
2026-05-04 15:50 45.83047 -66.83564 8962 ft 199 kts 60°
2026-05-04 15:50 45.83584 -66.81722 8963 ft 199 kts 59°
2026-05-04 15:51 45.84112 -66.79906 8963 ft 199 kts 59°
2026-05-04 15:51 45.84646 -66.78069 8963 ft 198 kts 60°
2026-05-04 15:51 45.85177 -66.76248 8965 ft 198 kts 59°
2026-05-04 15:51 45.85704 -66.74427 8966 ft 198 kts 59°
2026-05-04 15:52 45.86234 -66.72601 8962 ft 198 kts 60°
2026-05-04 15:52 45.86765 -66.70775 8961 ft 198 kts 59°
2026-05-04 15:52 45.87287 -66.68966 8965 ft 198 kts 59°
2026-05-04 15:52 45.87822 -66.67122 8964 ft 199 kts 59°
2026-05-04 15:53 45.88351 -66.65295 8967 ft 198 kts 59°
2026-05-04 15:53 45.88880 -66.63466 8965 ft 199 kts 59°
2026-05-04 15:53 45.89408 -66.61638 8962 ft 199 kts 59°
2026-05-04 15:53 45.89938 -66.59799 8963 ft 199 kts 59°
2026-05-04 15:54 45.90467 -66.57966 8963 ft 199 kts 59°
2026-05-04 15:54 45.90991 -66.56149 8967 ft 199 kts 59°
2026-05-04 15:54 45.91528 -66.54299 8964 ft 199 kts 59°
2026-05-04 15:54 45.92054 -66.52473 8964 ft 199 kts 59°
2026-05-04 15:55 45.92581 -66.50634 8962 ft 200 kts 59°
2026-05-04 15:55 45.93107 -66.48800 8965 ft 199 kts 59°
2026-05-04 15:55 45.93635 -66.46960 8970 ft 199 kts 59°
2026-05-04 15:55 45.94166 -66.45106 8969 ft 200 kts 59°
2026-05-04 15:56 45.94590 -66.43214 8960 ft 203 kts 71°
2026-05-04 15:56 45.94872 -66.41212 8958 ft 204 kts 73°
2026-05-04 15:56 45.95135 -66.39220 8960 ft 204 kts 73°
2026-05-04 15:56 45.95397 -66.37224 8959 ft 203 kts 73°
2026-05-04 15:57 45.95661 -66.35223 8957 ft 203 kts 73°
2026-05-04 15:57 45.95927 -66.33237 8949 ft 203 kts 73°
2026-05-04 15:57 45.96193 -66.31243 8954 ft 203 kts 74°
2026-05-04 15:57 45.96460 -66.29234 8947 ft 203 kts 73°
2026-05-04 15:58 45.96723 -66.27261 8948 ft 203 kts 74°
2026-05-04 15:58 45.96988 -66.25266 8946 ft 203 kts 74°
2026-05-04 15:58 45.97253 -66.23270 8935 ft 203 kts 74°
2026-05-04 15:58 45.97515 -66.21291 8935 ft 203 kts 74°
2026-05-04 15:59 45.97780 -66.19296 8936 ft 203 kts 74°
2026-05-04 15:59 45.98042 -66.17307 8942 ft 204 kts 73°
2026-05-04 15:59 45.98305 -66.15311 8941 ft 204 kts 73°
2026-05-04 15:59 45.98572 -66.13287 8947 ft 204 kts 73°
2026-05-04 16:00 45.98831 -66.11311 8948 ft 204 kts 73°
2026-05-04 16:00 45.99097 -66.09307 8948 ft 204 kts 73°
2026-05-04 16:00 45.99361 -66.07304 8951 ft 204 kts 73°
2026-05-04 16:00 45.99622 -66.05308 8951 ft 204 kts 73°
2026-05-04 16:01 45.99887 -66.03280 8953 ft 204 kts 73°
2026-05-04 16:01 46.00149 -66.01285 8950 ft 204 kts 73°
2026-05-04 16:01 46.00408 -65.99297 8946 ft 204 kts 73°
2026-05-04 16:01 46.00670 -65.97286 8947 ft 203 kts 73°
2026-05-04 16:02 46.00925 -65.95317 8942 ft 203 kts 73°
2026-05-04 16:02 46.01186 -65.93317 8942 ft 203 kts 73°
2026-05-04 16:02 46.01701 -65.89322 8930 ft 204 kts 73°
2026-05-04 16:03 46.01960 -65.87324 8927 ft 204 kts 73°
2026-05-04 16:03 46.02220 -65.85323 8924 ft 203 kts 73°
2026-05-04 16:03 46.02479 -65.83330 8925 ft 203 kts 73°
2026-05-04 16:03 46.02736 -65.81336 8929 ft 203 kts 73°
2026-05-04 16:04 46.02995 -65.79335 8924 ft 203 kts 73°
2026-05-04 16:04 46.03508 -65.75332 8928 ft 204 kts 73°
2026-05-04 16:04 46.03766 -65.73321 8925 ft 204 kts 73°
2026-05-04 16:05 46.04022 -65.71320 8925 ft 204 kts 73°
2026-05-04 16:05 46.04278 -65.69321 8933 ft 204 kts 73°
2026-05-04 16:05 46.04789 -65.65309 8923 ft 204 kts 73°
2026-05-04 16:06 46.05045 -65.63303 8929 ft 204 kts 73°
2026-05-04 16:06 46.05725 -65.57935 8926 ft 204 kts 73°
2026-05-04 16:07 46.06065 -65.55259 8918 ft 204 kts 73°
2026-05-04 16:07 46.06825 -65.49246 8931 ft 203 kts 73°
2026-05-04 16:08 46.07073 -65.47263 8932 ft 203 kts 73°
2026-05-04 16:08 46.07830 -65.41222 8928 ft 204 kts 73°
2026-05-04 16:09 46.08326 -65.37212 8923 ft 204 kts 73°
2026-05-04 16:09 46.08829 -65.33193 8919 ft 203 kts 74°
2026-05-04 16:10 46.09323 -65.29219 8921 ft 203 kts 74°
2026-05-04 16:11 46.10064 -65.23232 8924 ft 203 kts 74°
2026-05-04 16:11 46.10314 -65.21210 8911 ft 204 kts 74°
2026-05-04 16:12 46.11052 -65.15206 8902 ft 205 kts 74°
2026-05-04 16:12 46.11793 -65.09145 8902 ft 204 kts 74°
2026-05-04 16:13 46.12284 -65.05123 8899 ft 204 kts 74°
2026-05-04 16:13 46.12770 -65.01122 8905 ft 203 kts 73°
2026-05-04 16:14 46.13259 -64.97093 8818 ft 208 kts 74°
2026-05-04 16:14 46.13757 -64.92974 8568 ft 212 kts 75°
2026-05-04 16:15 46.14516 -64.86641 8178 ft 214 kts 75°
2026-05-04 16:16 46.15019 -64.82443 7916 ft 213 kts 74°
2026-05-04 16:16 46.15772 -64.76141 7546 ft 212 kts 74°
2026-05-04 16:17 46.16269 -64.71948 7289 ft 213 kts 74°
2026-05-04 16:18 46.17017 -64.65649 6919 ft 214 kts 75°
2026-05-04 16:18 46.17267 -64.63529 6803 ft 214 kts 75°
2026-05-04 16:19 46.18554 -64.57498 6431 ft 207 kts 54°
2026-05-04 16:19 46.19861 -64.53797 6190 ft 208 kts 54°
2026-05-04 16:20 46.21816 -64.48208 5827 ft 208 kts 55°
2026-05-04 16:20 46.23105 -64.44487 5588 ft 208 kts 55°
2026-05-04 16:21 46.25037 -64.38902 5215 ft 208 kts 55°
2026-05-04 16:22 46.26327 -64.35168 4977 ft 208 kts 55°
2026-05-04 16:22 46.28262 -64.29562 4579 ft 206 kts 56°
2026-05-04 16:23 46.30170 -64.24024 4192 ft 205 kts 56°
2026-05-04 16:24 46.32707 -64.16636 3677 ft 206 kts 56°
2026-05-04 16:25 46.33979 -64.12927 3419 ft 206 kts 56°
2026-05-04 16:26 46.36521 -64.05501 2909 ft 206 kts 57°
2026-05-04 16:26 46.38415 -63.99952 2523 ft 205 kts 57°
2026-05-04 16:27 46.39682 -63.96232 2257 ft 205 kts 57°
2026-05-04 16:28 46.41512 -63.90700 1890 ft 197 kts 59°
2026-05-04 16:28 46.42043 -63.85511 1863 ft 170 kts 118°
2026-05-04 16:29 46.42819 -63.79881 1702 ft 155 kts 30°
2026-05-04 16:30 46.45404 -63.76711 1191 ft 166 kts 29°
2026-05-04 16:31 46.47268 -63.76424 873 ft 126 kts 310°
2026-05-04 16:31 46.47776 -63.79240 863 ft 109 kts 226°
2026-05-04 16:32 46.46191 -63.80917 698 ft 81 kts 231°
2026-05-04 16:33 46.45373 -63.81938 291 ft 75 kts 219°
2026-05-04 16:33 46.44583 -63.82787 48 ft 58 kts 211°
2026-05-04 16:34 46.44256 -63.83051 56 ft 11 kts 158°
2026-05-04 16:34 46.44195 -63.83018 59 ft 7 kts 180°
2026-05-04 16:35 46.44006 -63.83061 68 ft 5 kts 172°
2026-05-04 16:35 46.43990 -63.83085 67 ft 0 kts 275°